Regional Weather Roundup
Issued by NWS

Home | Current Version | Previous Version | Text Only | Print | Product List | Glossary On
Versions: 1 2 3 4 5 6 7 8 9 10 11 12 13 14 15 16 17 18 19 20 21 22 23 24 25 26 27 28 29 30 31 32 33 34 35 36 37 38 39 40 41 42 43 44 45 46 47 48 49 50
564
ASPQ40 PGUM 210312
RWRPQ
WEATHER ROUNDUP FOR THE MARIANAS AND MICRONESIA
NATIONAL WEATHER SERVICE TIYAN GU
100 PM CHST TUE NOV 21 2017

GUZ001>004-210400-
MARIANA ISLANDS-

CITY           SKY/WX    TMP DP  RH WIND       PRES   REMARKS
GUAM AIRPORT   SUNNY     88  75  66 E14       29.81F HX  97
ANDERSEN AFB   MOSUNNY   86  75  70 E13       29.82F HX  95
ROTA AIRPORT   MOSUNNY   82  75  78 E13       29.82F
TINIAN AP      MOSUNNY   82  75  78 NE16      29.81F
SAIPAN AP      MOSUNNY   88  79  74 E15       29.82F HX 102

$$

PMZ161-210400-
REPUBLIC OF PALAU-

CITY           SKY/WX    TMP DP  RH WIND       PRES   REMARKS
KOROR AP       PTSUNNY   88  77  70 NE10G17   29.77F HX 100
KOROR WSO      PTSUNNY   91  77  62 E13       29.77F HX 105

$$

PMZ171>174-210400-
FEDERATED STATES OF MICRONESIA-

CITY           SKY/WX    TMP DP  RH WIND       PRES   REMARKS
YAP AIRPORT    PTSUNNY   88  77  70 NE13      29.75F HX 100
CHUUK AP       PTSUNNY   82  77  83 VRB6      29.69F HX  91
POHNPEI AP     CLOUDY    90  79  70 E8        29.69F HX 105
POHNPEI WSO    CLOUDY    90  75  62 SE7       29.71F HX 100
KOSRAE AP      NOT AVBL

$$

PMZ181-210400-
REPUBLIC OF THE MARSHALL ISLANDS-

CITY           SKY/WX    TMP DP  RH WIND       PRES   REMARKS
KWAJALEIN AP   MOSUNNY   86  77  74 NE13      29.71F HX  97
MAJURO AP      MOSUNNY   88  79  74 N10       29.70F HX 102
MAJURO WSO     PTSUNNY   86  77  74 NE8       29.68F HX  97

$$





USA.gov is the U.S. government's official web portal to all federal, state and local government web resources and services.